Location: Peyton Hall Observatory
(40.3466°N, 74.6516°W)
Time: 23:08:26
(UTC-05:00)

ISS - All Passes

Search period start: 24 November 2017 00:00
Search period end: 04 December 2017 00:00
Orbit: 401 x 407 km, 51.6° (Epoch: 25 November)

Date Brightness Start Highest point End Pass type
(mag) Time Alt. Az. Time Alt. Az. Time Alt. Az.
24 Nov - 00:26:51 10° NNW 00:29:02 16° NNE 00:31:12 10° ENE night (unlit)
24 Nov - 02:02:43 10° NW 02:05:59 70° NE 02:09:13 10° ESE night (unlit)
24 Nov - 03:40:40 10° WSW 03:42:02 12° SW 03:43:25 10° SSW night (unlit)
24 Nov - 18:42:26 10° SSW 18:45:14 26° SE 18:48:03 10° ENE visible
24 Nov - 20:18:35 10° W 20:21:38 35° NNW 20:24:40 10° NE night (unlit)
24 Nov - 21:57:13 10° NW 21:58:50 13° N 22:00:27 10° NNE night (unlit)
24 Nov - 23:34:42 10° NNW 23:36:24 13° N 23:38:06 10° NE night (unlit)
25 Nov - 01:10:29 10° NW 01:13:35 38° NNE 01:16:39 10° E night (unlit)
25 Nov - 02:47:15 10° WNW 02:49:55 23° SW 02:52:34 10° S night (unlit)
25 Nov - 17:51:18 10° SSE 17:53:05 14° SE 17:54:52 10° E visible
25 Nov - 19:25:57 10° WSW 19:29:12 62° NW 19:32:27 10° NE visible
25 Nov - 21:04:05 10° NW 21:06:11 16° NNW 21:08:18 10° NNE night (unlit)
25 Nov - 22:42:24 10° NNW 22:43:43 12° N 22:45:03 10° NNE night (unlit)
26 Nov - 00:18:18 10° NNW 00:21:05 25° NNE 00:23:51 10° E night (unlit)
26 Nov - 01:54:32 10° WNW 01:57:41 46° SW 02:00:49 10° SSE night (unlit)
26 Nov - 18:33:35 10° SW 18:36:50 68° SE 18:40:06 10° ENE visible
26 Nov - 20:11:00 10° WNW 20:13:35 21° NNW 20:16:09 10° NNE night (unlit)
26 Nov - 21:49:47 10° NNW 21:51:01 12° N 21:52:14 10° NNE night (unlit)
26 Nov - 23:26:10 10° NNW 23:28:30 18° NNE 23:30:51 10° ENE night (unlit)
27 Nov - 01:02:05 10° NW 01:05:22 87° NE 01:08:37 10° SE night (unlit)
27 Nov - 17:41:34 10° SSW 17:44:32 33° SE 17:47:32 10° ENE visible
27 Nov - 19:18:04 10° W 19:21:01 30° NNW 19:23:58 10° NE visible
27 Nov - 20:56:48 10° NW 20:58:18 12° N 20:59:47 10° NNE night (unlit)
27 Nov - 22:33:59 10° NNW 22:35:51 14° NNE 22:37:43 10° NE night (unlit)
28 Nov - 00:09:46 10° NW 00:12:57 46° NNE 00:16:06 10° ESE night (unlit)
28 Nov - 01:46:49 10° W 01:49:11 19° SW 01:51:33 10° S night (unlit)
28 Nov - 16:50:04 10° S 16:52:19 17° SE 16:54:34 10° E daylight
28 Nov - 18:25:19 10° WSW 18:28:31 50° NNW 18:31:44 10° NE visible
28 Nov - 20:03:39 10° NW 20:05:35 15° NNW 20:07:32 10° NNE visible
28 Nov - 21:41:42 10° NNW 21:43:08 12° N 21:44:34 10° NNE night (unlit)
28 Nov - 23:17:32 10° NW 23:20:26 28° NNE 23:23:20 10° E night (unlit)
29 Nov - 00:53:55 10° WNW 00:56:57 36° SW 00:59:58 10° SSE night (unlit)
29 Nov - 17:32:49 10° SW 17:36:06 86° SE 17:39:23 10° NE visible
29 Nov - 19:10:30 10° WNW 19:12:56 19° NNW 19:15:20 10° NNE visible
29 Nov - 20:49:10 10° NNW 20:50:24 12° N 20:51:37 10° NNE night (unlit)
29 Nov - 22:25:20 10° NNW 22:27:51 20° NNE 22:30:20 10° ENE night (unlit)
30 Nov - 00:01:21 10° NW 00:04:37 75° SW 00:07:52 10° SE night (unlit)
30 Nov - 16:40:37 10° SSW 16:43:45 42° SE 16:46:52 10° ENE daylight
30 Nov - 18:17:28 10° W 18:20:19 26° NNW 18:23:09 10° NE visible
30 Nov - 19:56:15 10° NNW 19:57:38 12° N 19:59:00 10° NNE visible
30 Nov - 21:33:09 10° NNW 21:35:10 15° NNE 21:37:12 10° NE night (unlit)
30 Nov - 23:08:58 10° NW 23:12:12 56° NNE 23:15:24 10° ESE night (unlit)
01 Dec - 00:46:22 10° W 00:48:20 15° SW 00:50:18 10° SSW night (unlit)
01 Dec - 15:48:53 10° S 15:51:27 21° SE 15:54:02 10° E daylight
01 Dec - 17:24:36 10° WSW 17:27:45 41° NNW 17:30:53 10° NE visible
01 Dec - 19:03:06 10° NW 19:04:53 14° NNW 19:06:40 10° NNE visible
01 Dec - 20:40:53 10° NNW 20:42:27 13° N 20:44:01 10° NE night (unlit)
01 Dec - 22:16:40 10° NW 22:19:41 33° NNE 22:22:40 10° E night (unlit)
01 Dec - 23:53:13 10° WNW 23:56:05 29° SW 23:58:57 10° SSE night (unlit)
02 Dec - 14:58:12 10° SSE 14:59:14 11° SE 15:00:16 10° ESE daylight
02 Dec - 16:31:58 10° WSW 16:35:15 77° NW 16:38:32 10° NE daylight
02 Dec - 18:09:54 10° WNW 18:12:09 17° NNW 18:14:25 10° NNE visible
02 Dec - 19:48:24 10° NNW 19:49:40 12° N 19:50:55 10° NNE visible
02 Dec - 21:24:25 10° NNW 21:27:04 22° NNE 21:29:42 10° ENE night (unlit)
02 Dec - 23:00:31 10° WNW 23:03:45 58° SW 23:06:57 10° SE night (unlit)
03 Dec - 15:39:37 10° SW 15:42:50 53° SE 15:46:03 10° ENE daylight
03 Dec - 17:16:47 10° W 17:19:28 23° NNW 17:22:12 10° NNE visible
03 Dec - 18:55:34 10° NNW 18:56:52 12° N 18:58:09 10° NNE visible
03 Dec - 20:32:11 10° NNW 20:34:23 16° NNE 20:36:34 10° ENE night (unlit)
03 Dec - 22:08:03 10° NW 22:11:19 70° NE 22:14:34 10° ESE night (unlit)
03 Dec - 23:46:01 10° WSW 23:47:22 12° SW 23:48:43 10° SSW night (unlit)
